When you browse on this site, cookies collect data to enhance your experience and personalize the content and advertising you see.
Visit our Privacy Policy to learn more. By continuing to use the site, you agree to this use of cookies and data.
  • En España
  • Lista de países
  • Para 7 días
  • Temperatura del agua
  • El tiempo en el mapa
  • Informadores
  • user-avatar
    Iniciar sesión

    Tiempo cada hora Bolonia

    Hoy, 29 Mayo, Viernes

    Tiempo Temperatura Precipitaciones Viento Presión Humedad
    00:00 +16°C° 0.5 mm 2 mps 758 mmHg 79%
    01:00 +14°C° 0 mm 4 mps 758 mmHg 85%
    02:00 +14°C° 0.5 mm 5 mps 758 mmHg 88%
    03:00 +13°C° 0.5 mm 5 mps 758 mmHg 90%
    04:00 +13°C° 0.5 mm 6 mps 758 mmHg 93%
    05:00 +11°C° 1.7 mm 6 mps 758 mmHg 93%
    06:00 +12°C° 1.7 mm 5 mps 758 mmHg 92%
    07:00 +12°C° 0 mm 5 mps 758 mmHg 93%
    08:00 +13°C° 1.1 mm 4 mps 758 mmHg 88%
    09:00 +13°C° 1.1 mm 4 mps 758 mmHg 82%
    10:00 +14°C° 1.1 mm 4 mps 759 mmHg 77%
    11:00 +15°C° 0.2 mm 4 mps 759 mmHg 73%
    12:00 +17°C° 0.2 mm 3 mps 759 mmHg 70%
    13:00 +18°C° 0 mm 3 mps 758 mmHg 65%
    14:00 +18°C° 0.5 mm 3 mps 758 mmHg 64%
    15:00 +18°C° 0.5 mm 2 mps 757 mmHg 63%
    16:00 +19°C° 0.5 mm 1 mps 757 mmHg 62%
    17:00 +19°C° 0 mm 1 mps 757 mmHg 67%
    18:00 +18°C° 0 mm 1 mps 756 mmHg 71%
    19:00 +16°C° 0 mm 1 mps 756 mmHg 76%
    20:00 +15°C° 0 mm 1 mps 756 mmHg 76%
    21:00 +14°C° 0 mm 1 mps 756 mmHg 76%
    22:00 +13°C° 0 mm 1 mps 757 mmHg 76%
    23:00 +13°C° 0 mm 1 mps 757 mmHg 76%

    Mañana, 30 Mayo, Sábado

    Tiempo Temperatura Precipitaciones Viento Presión Humedad
    00:00 +13°C° 0 mm 1 mps 757 mmHg 76%
    01:00 +13°C° 0 mm 1 mps 756 mmHg 77%
    02:00 +12°C° 0 mm 1 mps 756 mmHg 79%
    03:00 +12°C° 0 mm 1 mps 756 mmHg 80%
    04:00 +12°C° 0 mm 1 mps 756 mmHg 82%
    05:00 +13°C° 0 mm 1 mps 755 mmHg 80%
    06:00 +14°C° 0 mm 1 mps 755 mmHg 78%
    07:00 +15°C° 0 mm 2 mps 755 mmHg 75%
    08:00 +17°C° 0 mm 2 mps 755 mmHg 70%
    09:00 +18°C° 0 mm 2 mps 755 mmHg 65%
    10:00 +20°C° 0 mm 2 mps 755 mmHg 60%
    11:00 +20°C° 0.2 mm 2 mps 755 mmHg 59%
    12:00 +21°C° 0.2 mm 2 mps 754 mmHg 57%
    13:00 +23°C° 0.2 mm 2 mps 754 mmHg 55%
    14:00 +23°C° 0.3 mm 2 mps 754 mmHg 56%
    15:00 +22°C° 0.3 mm 3 mps 753 mmHg 56%
    16:00 +21°C° 0.3 mm 3 mps 753 mmHg 57%
    17:00 +20°C° 0 mm 3 mps 753 mmHg 62%
    18:00 +19°C° 0 mm 2 mps 753 mmHg 67%
    19:00 +18°C° 0 mm 2 mps 753 mmHg 72%
    20:00 +16°C° 0 mm 2 mps 753 mmHg 73%
    21:00 +15°C° 0 mm 2 mps 754 mmHg 73%
    22:00 +14°C° 0 mm 2 mps 754 mmHg 74%
    23:00 +13°C° 0 mm 2 mps 754 mmHg 74%

    Pasado mañana, 31 Mayo, Domingo

    Tiempo Temperatura Precipitaciones Viento Presión Humedad
    00:00 +13°C° 0 mm 1 mps 754 mmHg 74%
    01:00 +13°C° 0 mm 1 mps 754 mmHg 74%
    02:00 +13°C° 0 mm 1 mps 754 mmHg 75%
    03:00 +13°C° 0 mm 1 mps 754 mmHg 77%
    04:00 +13°C° 0 mm 1 mps 755 mmHg 78%
    05:00 +14°C° 0 mm 1 mps 755 mmHg 78%
    06:00 +14°C° 0 mm 1 mps 755 mmHg 77%
    07:00 +15°C° 0 mm 2 mps 755 mmHg 77%
    08:00 +18°C° 0.1 mm 1 mps 755 mmHg 74%
    09:00 +19°C° 0.1 mm 1 mps 755 mmHg 71%
    10:00 +20°C° 0.1 mm 1 mps 755 mmHg 68%
    11:00 +21°C° 0.1 mm 1 mps 755 mmHg 65%
    12:00 +20°C° 0.1 mm 2 mps 755 mmHg 63%
    13:00 +21°C° 0.1 mm 2 mps 755 mmHg 61%
    14:00 +21°C° 0.2 mm 2 mps 754 mmHg 61%
    15:00 +23°C° 0.2 mm 1 mps 754 mmHg 61%
    16:00 +23°C° 0.2 mm 1 mps 754 mmHg 60%
    17:00 +22°C° 0.1 mm 1 mps 754 mmHg 65%
    18:00 +21°C° 0.1 mm 1 mps 754 mmHg 70%
    19:00 +20°C° 0.1 mm 1 mps 754 mmHg 75%
    20:00 +19°C° 0 mm 1 mps 754 mmHg 78%
    21:00 +16°C° 0 mm 1 mps 754 mmHg 80%
    22:00 +15°C° 0 mm 1 mps 755 mmHg 83%
    23:00 +15°C° 0 mm 1 mps 755 mmHg 83%

    1 Junio, Lunes

    Tiempo Temperatura Precipitaciones Viento Presión Humedad
    00:00 +14°C° 0 mm 1 mps 755 mmHg 84%
    01:00 +14°C° 0 mm 1 mps 755 mmHg 84%
    02:00 +14°C° 0 mm 1 mps 755 mmHg 84%
    03:00 +14°C° 0 mm 1 mps 755 mmHg 85%
    04:00 +13°C° 0 mm 1 mps 755 mmHg 85%
    05:00 +14°C° 0 mm 0 mps 755 mmHg 82%
    06:00 +15°C° 0 mm 0 mps 755 mmHg 78%
    07:00 +16°C° 0 mm 0 mps 755 mmHg 75%
    08:00 +20°C° 0 mm 1 mps 755 mmHg 68%
    09:00 +21°C° 0 mm 1 mps 755 mmHg 62%
    10:00 +23°C° 0 mm 1 mps 756 mmHg 55%
    11:00 +23°C° 0 mm 2 mps 755 mmHg 53%
    12:00 +24°C° 0 mm 3 mps 755 mmHg 52%
    13:00 +25°C° 0 mm 3 mps 755 mmHg 50%
    14:00 +25°C° 0 mm 4 mps 755 mmHg 50%
    15:00 +25°C° 0 mm 4 mps 755 mmHg 50%
    16:00 +25°C° 0 mm 4 mps 754 mmHg 50%
    17:00 +24°C° 0 mm 3 mps 754 mmHg 56%
    18:00 +21°C° 0 mm 3 mps 754 mmHg 62%
    19:00 +20°C° 0 mm 2 mps 754 mmHg 68%
    20:00 +19°C° 0 mm 2 mps 754 mmHg 66%
    21:00 +17°C° 0 mm 2 mps 755 mmHg 65%
    22:00 +16°C° 0 mm 2 mps 755 mmHg 64%
    23:00 +16°C° 0 mm 2 mps 755 mmHg 63%

    2 Junio, Martes

    Tiempo Temperatura Precipitaciones Viento Presión Humedad
    00:00 +16°C° 0 mm 2 mps 755 mmHg 62%
    01:00 +16°C° 0 mm 2 mps 755 mmHg 61%
    02:00 +15°C° 0 mm 2 mps 755 mmHg 62%
    03:00 +15°C° 0 mm 2 mps 755 mmHg 63%
    04:00 +15°C° 0 mm 1 mps 755 mmHg 63%
    05:00 +16°C° 0 mm 1 mps 755 mmHg 64%
    06:00 +18°C° 0 mm 1 mps 755 mmHg 64%
    07:00 +19°C° 0 mm 1 mps 755 mmHg 65%
    08:00 +20°C° 0 mm 2 mps 755 mmHg 61%
    09:00 +23°C° 0 mm 2 mps 755 mmHg 56%
    10:00 +24°C° 0 mm 2 mps 755 mmHg 52%
    11:00 +25°C° 0 mm 3 mps 755 mmHg 51%
    12:00 +25°C° 0 mm 3 mps 754 mmHg 51%
    13:00 +26°C° 0 mm 3 mps 754 mmHg 50%
    14:00 +26°C° 0 mm 3 mps 754 mmHg 52%
    15:00 +26°C° 0 mm 3 mps 753 mmHg 54%
    16:00 +25°C° 0 mm 4 mps 753 mmHg 56%
    17:00 +24°C° 0 mm 3 mps 752 mmHg 62%
    18:00 +22°C° 0 mm 3 mps 752 mmHg 68%
    19:00 +20°C° 0 mm 3 mps 752 mmHg 74%
    20:00 +19°C° 0 mm 3 mps 752 mmHg 74%
    21:00 +18°C° 0 mm 3 mps 752 mmHg 74%
    22:00 +17°C° 0 mm 3 mps 752 mmHg 75%
    23:00 +17°C° 0 mm 2 mps 752 mmHg 75%

    3 Junio, Miércoles

    Tiempo Temperatura Precipitaciones Viento Presión Humedad
    00:00 +17°C° 0 mm 2 mps 752 mmHg 75%
    01:00 +16°C° 0 mm 2 mps 751 mmHg 74%
    02:00 +16°C° 0 mm 2 mps 751 mmHg 75%
    03:00 +16°C° 0 mm 2 mps 751 mmHg 75%
    04:00 +16°C° 0 mm 2 mps 750 mmHg 76%
    05:00 +18°C° 0 mm 1 mps 750 mmHg 74%
    06:00 +19°C° 0 mm 1 mps 750 mmHg 73%
    07:00 +20°C° 0 mm 1 mps 750 mmHg 72%
    08:00 +21°C° 0 mm 1 mps 750 mmHg 68%
    09:00 +22°C° 0 mm 1 mps 750 mmHg 65%
    10:00 +23°C° 0 mm 1 mps 750 mmHg 62%
    11:00 +23°C° 0.3 mm 1 mps 750 mmHg 63%
    12:00 +24°C° 0.3 mm 1 mps 750 mmHg 64%
    13:00 +24°C° 0.3 mm 1 mps 750 mmHg 66%
    14:00 +24°C° 0.4 mm 1 mps 749 mmHg 64%
    15:00 +24°C° 0.4 mm 2 mps 749 mmHg 62%
    16:00 +25°C° 0.4 mm 2 mps 749 mmHg 61%
    17:00 +24°C° 0.5 mm 2 mps 748 mmHg 66%
    18:00 +23°C° 0.5 mm 2 mps 748 mmHg 72%
    19:00 +22°C° 0.5 mm 1 mps 748 mmHg 77%
    20:00 +20°C° 0.1 mm 2 mps 748 mmHg 79%
    21:00 +19°C° 0.1 mm 2 mps 748 mmHg 80%
    22:00 +18°C° 0.1 mm 3 mps 748 mmHg 82%
    23:00 +18°C° 0.1 mm 2 mps 748 mmHg 82%
    Mostrar más